Regional Weather Roundup
Issued by NWS

Home | Current Version | Previous Version | Graphics & Text | Print | Product List | Glossary On
Versions: 1 2 3 4 5 6 7 8 9 10 11 12 13 14 15 16 17 18 19 20 21 22 23 24 25 26 27 28 29 30 31 32 33 34 35 36 37 38 39 40 41 42 43 44 45 46 47 48 49 50
045
ASUS43 KDMX 231506
RWRIA

WEATHER ROUNDUP FOR IOWA
NATIONAL WEATHER SERVICE DES MOINES IA
1000 AM CDT SUN JUL 23 2017

NOTE: "FAIR" INDICATES FEW OR NO CLOUDS BELOW 12,000 FEET WITH NO
SIGNIFICANT WEATHER AND/OR OBSTRUCTIONS TO VISIBILITY.

* - THESE STATIONS ARE NOT NWS STATIONS...THUS NOT UNDER NWS
QUALITY CONTROL.  THEY ALSO DO NOT REPORT WEATHER SUCH
AS PRECIPITATION OR FOG.

IAZ001>003-012>014-020>022-031>034-043>046-231600-
   NORTHWEST IOWA

CITY           SKY/WX    TMP DP  RH WIND       PRES   REMARKS
CARROLL *      SUNNY     77  66  69 N9        29.95S
CHEROKEE *     SUNNY     75  64  67 NW6       29.97S
DENISON *      SUNNY     77  64  65 N7        29.98S
ORANGE CITY *  SUNNY     73  63  68 N6        29.99S
SHELDON *      SUNNY     72  61  68 N8        29.99R
SIOUX CITY     SUNNY     80  61  52 N10       29.98R HX  81
SPENCER        SUNNY     74  59  59 N13       29.98R
STORM LAKE *   SUNNY     75  63  64 N12       29.98R
$$

IAZ055>058-069>071-079>083-090>094-231600-
   SOUTHWEST IOWA

CITY           SKY/WX    TMP DP  RH WIND       PRES   REMARKS
ATLANTIC *     SUNNY     79  73  83 VRB5      29.95F HX  82
AUDUBON *      SUNNY     79  72  78 NW8       29.97S HX  82
CLARINDA *     PTSUNNY   81  79  94 VRB6      29.97S HX  89
COUNCIL BLFS * SUNNY     73  73 100 CALM      29.97
CRESTON *      SUNNY     82  73  74 NW9       29.96S HX  88
HARLAN  *      SUNNY     81  75  83 NW6       29.99S HX  86
LAMONI         MOSUNNY   83  77  82 W12       29.93S HX  92
RED OAK *      PTSUNNY   75  73  94 VRB6G12   29.97S
SHENANDOAH *   MOSUNNY   79  75  89 VRB3      29.96S HX  82
$$

IAZ047>049-059>061-072>074-084-231600-
   CENTRAL IOWA

CITY           SKY/WX    TMP DP  RH WIND       PRES   REMARKS
AMES           SUNNY     78  70  76 NW14      29.92R HX  80
ANKENY *       SUNNY     81  70  69 NW13      29.92S HX  84
BOONE *        SUNNY     79  66  65 NW13      29.93R HX  81
CHARITON *     SUNNY     84  72  65 NW12      29.91S HX  89
DES MOINES     MOSUNNY   83  70  64 NW12      29.90F HX  87
GRINNELL*      SUNNY     80  71  73 W13G20    29.90F HX  83
KNOXVILLE *    SUNNY     82  72  69 NW13      29.89F HX  87
MARSHALLTOWN   SUNNY     79  68  69 NW15      29.89R HX  81
NEWTON *       SUNNY     81  72  74 NW12      29.90F HX  84
PELLA *        SUNNY     82  71  68 NW9G17    29.90F HX  86
$$

IAZ004>006-015-016-023>025-035-036-231600-
   NORTH CENTRAL IOWA

CITY           SKY/WX    TMP DP  RH WIND       PRES   REMARKS
ALGONA *       SUNNY     73  63  68 N14G20    29.95S
CLARION *      SUNNY     73  66  78 N12G17    29.93R
ESTHERVILLE    SUNNY     71  60  68 N16       29.96S
FORT DODGE *   SUNNY     75  64  69 NW8       29.95R
MASON CITY     SUNNY     75  62  64 N15       29.93R
FOREST CITY *    N/A     73  61  64 N16       29.93S
WEBSTER CITY * SUNNY     75  66  73 NW7       29.92R
IOWA FALLS *     N/A     76  68  76 NW12      29.92S
$$

IAZ007>011-017>019-026>030-037>042-050>054-066-231600-
   NORTHEAST IOWA

CITY           SKY/WX    TMP DP  RH WIND       PRES   REMARKS
CEDAR RAPIDS   SUNNY     81  75  82 W15       29.86S HX  87
CHARLES CITY * SUNNY     75  70  83 NW12      29.89R
DECORAH *      MOSUNNY   75  68  78 NW7       29.85R
DUBUQUE        MOSUNNY   78  71  79 W14       29.86S HX  80
MONTICELLO *   SUNNY     81  73  78 W10       29.85S HX  85
OELWEIN *        N/A    N/A N/A N/A MISG        N/A
WATERLOO       SUNNY     77  66  68 W14       29.86R
$$

IAZ064-065-067-068-078-231600-
   EAST CENTRAL IOWA

CITY           SKY/WX    TMP DP  RH WIND       PRES   REMARKS
DAVENPORT      SUNNY     82  75  79 W9        29.87F HX  89
IOWA CITY      SUNNY     84  74  71 W13G20    29.86F HX  91
MT. PLEASANT * SUNNY     83  74  74 W12G18    29.87S HX  89
MUSCATINE *    MOSUNNY   82  75  78 NW9       29.85F HX  89
QUAD CITIES    SUNNY     83  73  72 W9        29.84F HX  89
$$

IAZ062-063-075>077-085>089-095>099-231600-
   SOUTHEAST IOWA

CITY           SKY/WX    TMP DP  RH WIND       PRES   REMARKS
BURLINGTON     SUNNY     84  77  79 NW6       29.86S HX  94
FAIRFIELD *    SUNNY     82  75  78 NW10G17   29.87F HX  89
FORT MADISON * MOSUNNY   82  77  83 W9G16     29.88S HX  91
KEOKUK *       SUNNY     84  75  74 NW10      29.87S HX  92
OSKALOOSA *      N/A     83  73  73 NW12      29.89S HX  89
CENTERVILLE *    N/A     84  75  74 W7        29.92F HX  92
OTTUMWA        SUNNY     85  73  67 NW13      29.89S HX  91
WASHINGTON *   SUNNY     82  77  83 W12       29.88S HX  91
$$

ABBREVIATIONS USED IN REMARKS
   TC - TEMPERATURES IN CELSIUS
  WCI - WIND CHILL INDEX
   HX - HEAT INDEX
  VSB - VISIBILITY
$$





USA.gov is the U.S. government's official web portal to all federal, state and local government web resources and services.